DateTimeUTC,F1_A11,F1_S11,BsB_S11,BsG_S11,BsR_S11,BbsB_S11,BbsG_S11,BbsR_S11,BaB_A11,BaG_A11,BaR_A11,Tu_S11,T_S11,Uu_S11,U_S11,P_S11,T1_A11
2021-10-04T02:00:00Z,00000200,21000000,,,,,,,0000.31,-000.05,-000.17,16.6,23.8,,00.0,0667.7,30.9
2021-10-04T02:01:00Z,00000200,21000000,,,,,,,0000.07,0000.03,0000.13,16.6,23.8,,00.0,0667.7,30.9
2021-10-04T02:02:00Z,00000200,21000000,,,,,,,-000.20,0000.33,0000.04,16.6,23.8,,00.0,0667.7,30.9
2021-10-04T02:03:00Z,00000200,61000000,,,,,,,-000.17,-000.32,0000.18,16.6,23.8,,00.0,0667.7,30.9
2021-10-04T02:04:00Z,00000200,41000000,0000.95,0000.29,-000.17,0000.67,0000.06,0000.09,0000.47,0000.31,0000.21,16.9,23.7,,00.0,0668.6,30.9
2021-10-04T02:05:00Z,00000200,01000000,-000.66,0000.31,-000.03,0000.53,0000.11,-000.10,-000.29,0000.38,0000.16,17.1,23.7,,00.0,0668.7,30.9
2021-10-04T02:06:00Z,00000200,01000000,0000.40,0000.36,0000.22,0000.28,0000.26,0000.27,0000.26,-000.28,-000.07,17.1,23.7,,00.0,0668.7,31.0
2021-10-04T02:07:00Z,00000200,01000000,0001.01,0000.51,0000.27,0000.51,0000.22,-000.14,-000.27,-000.39,-000.56,17.1,23.7,,00.0,0668.7,30.9
2021-10-04T02:08:00Z,00000200,01000000,-000.08,0000.60,-000.19,0000.45,0000.04,-000.14,-000.02,0000.49,0000.64,17.1,23.7,,00.0,0668.7,30.9
2021-10-04T02:09:00Z,00000200,01000000,0000.17,0000.39,0000.11,0000.05,-000.00,-000.23,0000.02,-000.39,-000.33,17.0,23.7,,00.0,0668.7,30.9
2021-10-04T02:10:00Z,00000200,01000000,0000.72,0000.33,0000.13,0001.28,0000.06,0000.03,0000.14,0000.17,-000.22,17.0,23.6,,00.0,0668.7,30.9
2021-10-04T02:11:00Z,00000200,01000000,0001.16,0000.32,0000.19,0000.40,0000.20,0000.12,-000.04,-000.19,0000.24,17.0,23.6,,00.0,0668.7,30.9
2021-10-04T02:12:00Z,00000200,01000000,0000.68,-000.02,0000.36,0000.52,0000.00,0000.22,0000.26,0000.25,0000.25,16.9,23.6,,00.0,0668.7,30.9
2021-10-04T02:13:00Z,00000200,01000000,0001.08,0000.65,-000.11,0000.45,-000.24,-000.09,0000.48,0000.49,0000.20,16.9,23.6,,00.0,0668.7,30.9
2021-10-04T02:14:00Z,00000200,01000000,0000.22,0000.95,0000.12,0000.56,0000.28,-000.09,0011.15,0010.15,0008.16,16.8,23.5,,00.0,0668.6,30.9
2021-10-04T02:15:00Z,00000200,01000000,0001.04,0000.66,0000.08,0000.37,0000.02,0000.15,0009.90,0009.04,0007.07,16.8,23.5,,00.0,0668.6,30.9
2021-10-04T02:16:00Z,00000200,01000000,-000.17,0000.05,0000.15,0000.60,0000.28,0000.04,0000.30,0000.51,0000.45,16.8,23.5,,00.0,0668.6,30.9
2021-10-04T02:17:00Z,00000200,01000000,0000.22,0000.82,0000.04,0000.30,-000.13,-000.31,-000.19,0000.09,-000.32,16.8,23.5,,00.0,0668.6,30.9
2021-10-04T02:18:00Z,00000200,01000000,0000.37,0000.20,0000.03,0000.06,0000.17,-000.02,0000.17,-000.03,0000.39,16.9,23.5,,00.0,0668.6,30.9
2021-10-04T02:19:00Z,00000200,01000000,-000.25,0000.26,0000.18,0000.12,-000.08,0000.36,0000.26,0000.04,-000.14,16.9,23.6,,00.0,0668.6,30.9
2021-10-04T02:20:00Z,00000200,01000000,0002.47,0001.14,0000.51,0000.87,0000.25,0000.71,0019.59,0018.15,0013.98,17.0,23.6,,00.0,0668.6,30.9
2021-10-04T02:21:00Z,00000200,01000000,0006.67,0004.17,0002.75,0001.05,0001.15,0000.65,0082.17,0074.92,0059.50,17.0,23.6,,00.0,0668.6,30.9
2021-10-04T02:22:00Z,00000200,01000000,0009.80,0006.43,0004.27,0002.32,0001.77,0001.20,0126.40,0116.24,0091.53,17.0,23.6,,00.0,0668.6,30.9
2021-10-04T02:23:00Z,00000200,01000000,0003.27,0002.67,0001.63,0001.91,0000.73,0000.46,0060.83,0057.12,0045.89,17.0,23.6,,00.0,0668.5,30.9
2021-10-04T02:24:00Z,00000200,01000000,0000.27,0000.57,-000.08,0000.63,-000.00,-000.00,0002.02,0001.72,0001.58,16.9,23.5,,00.0,0668.5,30.9
2021-10-04T02:25:00Z,00000200,01000000,0000.33,0000.46,0000.10,0000.88,-000.07,0000.11,0000.46,0000.66,0000.15,16.9,23.5,,00.0,0668.5,30.9
2021-10-04T02:26:00Z,00000200,01000000,0001.27,0000.43,0000.34,0000.61,-000.05,-000.33,0000.61,0000.27,0000.75,16.8,23.5,,00.0,0668.5,30.9
2021-10-04T02:27:00Z,00000200,01000000,0000.72,0000.17,0000.10,0000.15,0000.34,0000.18,0000.23,0000.15,0000.20,16.8,23.5,,00.0,0668.5,30.9
2021-10-04T02:28:00Z,00000200,01000000,0000.56,0000.39,-000.04,-000.14,0000.18,0000.41,0000.29,0000.39,0000.05,16.7,23.4,,00.0,0668.5,30.9
2021-10-04T02:29:00Z,00000200,01000000,0000.07,0000.17,-000.12,0000.43,-000.03,0000.27,0000.55,-000.14,0000.33,16.7,23.4,,00.0,0668.5,30.9
2021-10-04T02:30:00Z,00000200,01000000,0000.77,0000.02,0000.17,0000.53,0000.03,0000.29,0000.18,0000.44,0000.26,16.7,23.4,,00.0,0668.5,30.9
2021-10-04T02:31:00Z,00000200,01000000,0000.26,0000.25,-000.09,0000.09,-000.29,0000.02,0000.16,0000.62,-000.20,16.7,23.4,,00.0,0668.5,30.9
2021-10-04T02:32:00Z,00000200,01000000,0000.99,0000.15,0000.07,0000.61,-000.01,0000.02,0000.57,-000.17,0000.19,16.7,23.4,00.0,00.0,0668.5,30.9
2021-10-04T02:33:00Z,00000200,01000000,0000.48,0000.79,0000.11,0000.66,0000.12,-000.08,-000.01,0000.43,0000.65,16.8,23.5,,00.0,0668.5,30.9
2021-10-04T02:34:00Z,00000200,01000000,0000.13,0000.08,0000.24,0000.89,0000.10,-000.21,0000.06,0000.20,0000.24,16.9,23.5,,00.0,0668.5,30.9
2021-10-04T02:35:00Z,00000200,01000000,0000.88,0000.29,0000.24,0000.45,-000.40,0000.19,0000.46,0000.02,-000.26,16.9,23.5,,00.0,0668.5,30.9
2021-10-04T02:36:00Z,00000200,01000000,0000.58,0000.27,0000.03,0000.88,0000.28,-000.23,-000.00,0000.20,0000.14,17.0,23.5,,00.0,0668.5,30.9
2021-10-04T02:37:00Z,00000200,01000000,0000.38,-000.02,-000.09,0000.33,0000.18,-000.05,0000.16,0000.01,-000.04,17.1,23.6,,00.0,0668.5,30.9
2021-10-04T02:38:00Z,00000200,01000000,0001.20,0000.25,0000.20,0000.24,0000.02,0000.24,-000.21,0000.00,0000.17,17.1,23.6,,00.0,0668.5,30.9
2021-10-04T02:39:00Z,00000200,01000000,0000.26,0000.11,0000.45,0000.30,0000.25,-000.37,-000.11,0000.24,0000.03,17.1,23.6,,00.0,0668.4,31.0
2021-10-04T02:40:00Z,00000200,01000000,0000.36,0000.01,0000.20,-000.30,-000.08,0000.19,0000.47,-000.08,0000.11,17.1,23.6,00.0,00.0,0668.4,30.9
2021-10-04T02:41:00Z,00000200,01000000,0000.69,0000.40,0000.11,0000.74,-000.05,-000.18,0000.05,-000.17,-000.20,17.0,23.6,,00.0,0668.4,30.9
2021-10-04T02:42:00Z,00000200,01000000,0000.12,0000.33,-000.01,0001.38,0000.09,-000.14,0000.08,0000.32,0000.24,17.0,23.6,,00.0,0668.4,30.9
2021-10-04T02:43:00Z,00000200,01000000,0000.57,0000.26,0000.08,0000.40,0000.17,0000.05,-000.04,-000.01,-000.33,16.9,23.5,,00.0,0668.5,30.9
2021-10-04T02:44:00Z,00000200,01000000,0001.31,0000.40,0000.14,0000.93,0000.19,-000.19,0000.11,0000.32,0000.16,16.9,23.5,,00.0,0668.5,30.9
2021-10-04T02:45:00Z,00000200,01000000,0000.65,0000.13,-000.16,0000.71,-000.09,-000.01,0000.33,0000.13,0000.30,16.9,23.5,,00.0,0668.5,30.9
2021-10-04T02:46:00Z,00000200,01000000,0000.44,-000.08,0000.28,0000.67,0000.07,0000.16,-000.13,-000.01,0000.14,16.9,23.5,,00.0,0668.5,30.9
2021-10-04T02:47:00Z,00000200,01000000,-000.02,0000.15,0000.29,0000.36,-000.07,0000.07,0000.18,-000.02,-000.13,16.9,23.5,,00.0,0668.5,30.9
2021-10-04T02:48:00Z,00000200,01000000,0000.49,-000.03,-000.10,0000.69,0000.12,0000.08,0000.09,0000.27,0000.20,17.0,23.5,,00.0,0668.5,30.9
2021-10-04T02:49:00Z,00000200,01000000,0000.62,0000.47,0000.18,0000.36,-000.03,0000.20,0000.05,0000.02,0000.26,17.0,23.5,,00.0,0668.5,30.9
2021-10-04T02:50:00Z,00000200,01000000,0000.76,0000.02,-000.01,0000.26,0000.19,-000.10,0000.53,0000.32,0000.15,17.1,23.6,,00.0,0668.5,31.0
2021-10-04T02:51:00Z,00000200,01000000,0000.78,0000.15,0000.02,0000.57,-000.09,0000.05,-000.12,-000.34,-000.02,17.2,23.6,,00.0,0668.5,31.0
2021-10-04T02:52:00Z,00000200,01000000,0000.70,0000.25,-000.03,0000.61,-000.12,-000.10,0000.03,0000.22,0000.18,17.2,23.6,,00.0,0668.4,31.0
2021-10-04T02:53:00Z,00000200,01000000,0000.16,0000.27,0000.46,0000.38,0000.16,-000.22,0000.06,-000.24,-000.05,17.2,23.7,,00.0,0668.5,30.9
2021-10-04T02:54:00Z,00000200,01000000,0000.95,-000.02,-000.08,0000.31,-000.25,-000.02,0000.11,0000.48,-000.15,17.2,23.6,,00.0,0668.4,30.9
2021-10-04T02:55:00Z,00000200,01000000,0000.03,0000.03,-000.14,0001.11,-000.26,0000.08,-000.28,-000.29,-000.22,17.1,23.6,,00.0,0668.4,30.9
2021-10-04T02:56:00Z,00000200,01000000,0000.85,0000.46,0000.22,0000.04,0000.03,0000.24,0000.22,0000.08,0000.09,17.1,23.6,,00.0,0668.4,30.9
2021-10-04T02:57:00Z,00000200,41000000,,,,,,,0000.73,0000.93,0000.48,17.1,23.6,,00.0,0668.4,30.9
2021-10-04T02:58:00Z,00000200,61000000,,,,,,,-000.51,-000.37,0000.26,16.7,23.7,,00.0,0667.4,30.9
2021-10-04T02:59:00Z,00000200,21000000,,,,,,,0000.01,0000.06,-000.13,16.6,23.8,,00.0,0667.4,30.9
